[Iaude] MPEC C196: 2024 CT6 [a=2.06,e=0.70,i=4.0,H=29.1]
    mpec at cfa.harvard.edu 
    mpec at cfa.harvard.edu
       
    Thu Feb 15 17:47:55 EST 2024
    
    
  
M.P.E.C. 2024-C196                            Issued 2024 February 15, 22:46 UT
     The Minor Planet Electronic Circulars contain information on unusual
         minor planets, routine data on comets and natural satellites,
         and occasional editorial announcements.  They are published
    on behalf of Division F of the International Astronomical Union by the
          Minor Planet Center, Smithsonian Astrophysical Observatory,
                          Cambridge, MA 02138, U.S.A.
			  
             Prepared using the Tamkin Foundation Computer Network
                              MPC at CFA.HARVARD.EDU
            URL https://www.minorplanetcenter.net/    ISSN 1523-6714
                                    2024 CT6                                    
Observations:
     K24C06T* C2024 02 14.34646509 38 49.921+11 21 53.66         21.86wXEC196F52
     K24C06T  C2024 02 14.35784809 38 47.043+11 23 03.72               VEC196F52
     K24C06T  C2024 02 14.36975709 38 44.006+11 24 15.95         21.71GVEC196F52
     K24C06T  C2024 02 14.38142809 38 40.960+11 25 27.51         21.72wXEC196F52
     K24C06T  C2024 02 14.51141709 38 04.052+11 39 14.73         21.41GVEC196F51
     K24C06T  C2024 02 14.51180009 38 03.941+11 39 17.57               VEC196F51
     K24C06T KC2024 02 14.96806809 36 32.39 +12 40 12.3          21.2 GVEC196L01
     K24C06T KC2024 02 14.97016909 36 31.57 +12 40 33.8          21.2 GVEC196L01
     K24C06T KC2024 02 14.97251509 36 30.68 +12 40 57.3          21.5 GVEC196L01
     K24C06T HC2024 02 15.02736 09 36 10.56 +12 50 29.9          21.4 GVEC196204
     K24C06T KC2024 02 15.05044 09 36 01.22 +12 54 40.6                VEC196204
     K24C06T KB2024 02 15.87747 09 28 52.03 +17 29 47.4          19.6 GXEC196M45
     K24C06T KB2024 02 15.87991 09 28 49.09 +17 31 15.9                XEC196M45
Observer details:
204 Schiaparelli Observatory.  Observer L. Buzzi.  0.84-m f/3.5 reflector +
    CMO.
F51 Pan-STARRS 1, Haleakala.  Observers J. Herman, T. Lowe, P. Minguez, A.
    Schultz, I. Smith.  Measurers K. Chambers, T. de Boer, J. Fairlamb, H.
    Gao, M. Huber, C.-C. Lin, E. Magnier, Y. Ramanjooloo, R. Wainscoat, R.
    Weryk.  1.8-m Ritchey-Chretien + CCD.
F52 Pan-STARRS 2, Haleakala.  Observers J. Herman, T. Lowe, P. Minguez, A.
    Schultz, I. Smith.  Measurers K. Chambers, T. de Boer, J. Fairlamb, H.
    Gao, M. Huber, C.-C. Lin, E. Magnier, Y. Ramanjooloo, R. Wainscoat, R.
    Weryk.  1.8-m Ritchey-Chretien + CCD.
L01 Visnjan Observatory, Tican.  Observer K. Korlevic.  1.0-m f/2.9 reflector
    + CCD.
M45 Starhopper Observatory, Sfantu Gheorghe.  Observer F. Ursache.  0.41-m
    f/7.5 reflector + CMO.
Orbital elements:
2024 CT6                                                 Earth MOID = 0.0019 AU
Epoch 2024 Mar. 31.0 TT = JDT 2460400.5                 MPC                     
M 359.19507              (2000.0)            P               Q                  
n   0.33362049     Peri.   87.30771     -0.59941649     +0.79947760             
a   2.0588952      Node   145.76642     -0.75928305     -0.55242096             
e   0.7038126      Incl.    3.99406     -0.25335571     -0.23593779             
P   2.95           H   29.19          G   0.15           U   8                  
Residuals in seconds of arc
240214 F52  0.3+  0.4-    240214 F51  0.0   0.1-    240215 204  0.4-  1.0+
240214 F52  0.1-  0.4+    240214 L01  0.1+  0.0     240215 M45  0.9+  0.4-
240214 F52  0.1+  0.3-    240214 L01  0.1-  0.1+    240215 M45  0.6+  0.2+
240214 F52  0.4+  0.5-    240214 L01  0.2+  0.4-
240214 F51  0.0   0.4-    240215 204  0.3-  0.3+
Ephemeris:
2024 CT6                 a,e,i = 2.06, 0.70, 4                   q = 0.6098
Date    TT    R. A. (2000) Decl.     Delta      r    Elong.  Phase     V
2024 01 16    09 40 02.8 +08 30 04   0.4147  1.3591   150.1    21.1    29.0
...
2024 01 31    09 43 33.1 +08 03 52   0.2093  1.1876   164.0    13.2    26.9
...
2024 02 08    09 43 18.4 +08 26 11   0.1083  1.0936   171.5     7.6    25.1
...
2024 02 14    09 39 27.2 +10 52 43   0.03505 1.0224   176.9     3.0    22.3
2024 02 15    09 36 24.5 +12 49 00   0.02299 1.0105   176.5     3.5    21.4
2024 02 16    09 26 25.5 +18 57 48   0.01104 0.9987   170.7     9.2    20.0
...
2024 02 22    21 47 51.8 -05 24 12   0.06195 0.9279     9.1   170.3
...
2024 03 01    21 46 58.0 -06 46 26   0.1614  0.8361    15.2   161.9
...
2024 03 16    21 55 52.4 -07 07 27   0.3705  0.6873    27.4   138.2    32.8
A. U. Tomatic                (C) Copyright 2024 MPC           M.P.E.C. 2024-C196
    
    
More information about the Iaude
mailing list